GW5875 Weather Reports


time (UTC)temp
C
wind
direction
speed
KPH
gust
KPH
rain 1hr
cm
rain 24hr
cm
rain mn
cm
humidity
%
barometer
mb
20260906155601 35 287 4.8 8.0 0.00 0.00 0.00 57 1012.8
20260906155057 35 161 1.6 1.6 0.00 0.00 0.00 62 1012.8
20260906154552 34 182 3.2 4.8 0.00 0.00 0.00 60 1012.7
20260906154051 34 225 4.8 6.4 0.00 0.00 0.00 60 1012.8
20260906153549 34 165 0.0 1.6 0.00 0.00 0.00 60 1012.8
20260906153046 33 164 0.0 1.6 0.00 0.00 0.00 61 1012.7
20260906152545 33 171 3.2 4.8 0.00 0.00 0.00 59 1012.7
20260906152044 33 212 4.8 4.8 0.00 0.00 0.00 60 1012.7
20260906151540 33 181 3.2 4.8 0.00 0.00 0.00 62 1012.7
20260906151036 33 188 3.2 4.8 0.00 0.00 0.00 62 1012.7
20260906150531 32 199 3.2 4.8 0.00 0.00 0.00 64 1012.6
20260906150026 32 188 1.6 1.6 0.00 0.00 0.00 65 1012.7
20260906145524 32 162 0.0 1.6 0.00 0.00 0.00 67 1012.9
20260906145020 32 198 3.2 4.8 0.00 0.00 0.00 68 1012.9
20260906144515 31 165 1.6 1.6 0.00 0.00 0.00 69 1012.7
20260906144010 31 320 4.8 6.4 0.00 0.00 0.00 70 1012.7
20260906143505 31 310 4.8 6.4 0.00 0.00 0.00 71 1012.6
20260906143002 31 162 0.0 0.0 0.00 0.00 0.00 72 1012.7
20260906142500 30 177 1.6 1.6 0.00 0.00 0.00 74 1012.8
20260906141955 30 165 0.0 1.6 0.00 0.00 0.00 75 1012.8
20260906141454 31 200 3.2 4.8 0.00 0.00 0.00 73 1012.7
20260906140950 31 169 0.0 1.6 0.00 0.00 0.00 72 1012.8
20260906140444 30 156 0.0 0.0 0.00 0.00 0.00 76 1012.8
20260906135943 30 160 0.0 0.0 0.00 0.00 0.00 77 1013.0
20260906135441 29 191 1.6 1.6 0.00 0.00 0.00 78 1012.9
20260906134937 28 163 0.0 0.0 0.00 0.00 0.00 81 1012.9
20260906134432 28 160 0.0 0.0 0.00 0.00 0.00 82 1012.7
20260906133927 28 158 0.0 0.0 0.00 0.00 0.00 82 1012.7
20260906133423 27 158 0.0 0.0 0.00 0.00 0.00 83 1012.9
20260906132919 27 152 0.0 0.0 0.00 0.00 0.00 83 1012.6
20260906132414 27 152 0.0 0.0 0.00 0.00 0.00 85 1012.7
20260906131909 26 152 0.0 0.0 0.00 0.00 0.00 89 1012.7
20260906131404 26 152 0.0 0.0 0.00 0.00 0.00 90 1012.6
20260906130900 25 152 0.0 0.0 0.00 0.00 0.00 92 1012.8
20260906130359 25 152 0.0 0.0 0.00 0.00 0.00 94 1012.7
20260906125859 25 152 0.0 0.0 0.00 0.00 0.00 95 1012.8
20260906125356 25 151 0.0 0.0 0.00 0.00 0.00 97 1012.9
20260906124851 24 151 0.0 0.0 0.00 0.00 0.00 97 1012.7
20260906124347 23 152 0.0 0.0 0.00 0.00 0.00 98 1012.5
20260906123846 23 152 0.0 0.0 0.00 0.00 0.00 97 1012.6
20260906123341 23 152 0.0 0.0 0.00 0.00 0.00 97 1012.4
20260906122840 23 152 0.0 0.0 0.00 0.00 0.00 98 1012.5
20260906122335 22 151 0.0 0.0 0.00 0.00 0.00 98 1012.2
20260906121832 22 151 0.0 0.0 0.00 0.00 0.00 98 1012.2
20260906121328 22 151 0.0 0.0 0.00 0.00 0.00 98 1012.2
20260906120824 22 151 0.0 0.0 0.00 0.00 0.00 97 1012.2
20260906120320 22 151 0.0 0.0 0.00 0.00 0.00 97 1012.2
20260906115816 22 151 0.0 0.0 0.00 0.00 0.00 97 1012.1
20260906115311 22 151 0.0 0.0 0.00 0.00 0.00 98 1011.9
20260906114810 22 151 0.0 0.0 0.00 0.00 0.00 97 1011.8
20260906114306 22 151 0.0 0.0 0.00 0.00 0.00 97 1011.8
20260906113806 22 151 0.0 0.0 0.00 0.00 0.00 97 1011.9
20260906113305 22 151 0.0 0.0 0.00 0.00 0.00 97 1011.6
20260906112801 22 151 0.0 0.0 0.00 0.00 0.00 97 1011.7
20260906112256 22 151 0.0 0.0 0.00 0.00 0.00 97 1011.7
20260906111756 22 151 0.0 0.0 0.00 0.00 0.00 97 1011.5
20260906111255 22 151 0.0 0.0 0.00 0.00 0.00 97 1011.6
20260906110751 22 151 0.0 0.0 0.00 0.00 0.00 97 1011.6
20260906110247 22 151 0.0 0.0 0.00 0.00 0.00 97 1011.7
20260906105745 22 151 0.0 0.0 0.00 0.00 0.00 97 1011.6
20260906105241 22 151 0.0 0.0 0.00 0.00 0.00 97 1011.7
20260906104736 22 151 0.0 0.0 0.00 0.00 0.00 97 1011.6
20260906104235 22 151 0.0 0.0 0.00 0.00 0.00 97 1011.5
20260906103733 22 151 0.0 0.0 0.00 0.00 0.00 97 1011.4
20260906103228 22 151 0.0 0.0 0.00 0.00 0.00 97 1011.4
20260906102724 22 151 0.0 0.0 0.00 0.00 0.00 97 1011.4
20260906102222 22 151 0.0 0.0 0.00 0.00 0.00 97 1011.2
20260906101717 22 151 0.0 0.0 0.00 0.00 0.00 97 1011.2
20260906101212 23 151 0.0 0.0 0.00 0.00 0.00 97 1011.2
20260906100708 22 151 0.0 0.0 0.00 0.00 0.00 97 1011.5
20260906100209 22 151 0.0 0.0 0.00 0.00 0.00 97 1011.2
20260906095709 22 151 0.0 0.0 0.00 0.00 0.00 97 1011.3
20260906095204 23 151 0.0 0.0 0.00 0.00 0.00 97 1011.3
20260906094703 23 151 0.0 0.0 0.00 0.00 0.00 97 1011.4
20260906094158 23 151 0.0 0.0 0.00 0.00 0.00 97 1011.2
20260906093655 23 151 0.0 0.0 0.00 0.00 0.00 97 1011.1
20260906093149 23 151 0.0 0.0 0.00 0.00 0.00 97 1011.0
20260906092645 23 151 0.0 0.0 0.00 0.00 0.00 97 1010.9
20260906092144 23 151 0.0 0.0 0.00 0.00 0.00 97 1010.9
20260906091635 23 151 0.0 0.0 0.00 0.00 0.00 97 1010.9
20260906091132 23 151 0.0 0.0 0.00 0.00 0.00 96 1010.9
20260906090627 23 151 0.0 0.0 0.00 0.00 0.00 96 1011.0
20260906090126 23 151 0.0 0.0 0.00 0.00 0.00 96 1010.7
20260906085625 23 151 0.0 0.0 0.00 0.00 0.00 96 1010.6
20260906085120 23 151 0.0 0.0 0.00 0.00 0.00 96 1011.0
20260906084615 23 151 0.0 0.0 0.00 0.00 0.00 96 1010.6
20260906084114 23 151 0.0 0.0 0.00 0.00 0.00 96 1010.6
20260906083609 23 151 0.0 0.0 0.00 0.00 0.00 96 1010.7
20260906083109 23 151 0.0 0.0 0.00 0.00 0.00 96 1010.4
20260906082604 23 153 0.0 0.0 0.00 0.00 0.00 96 1010.6
20260906082100 23 153 0.0 0.0 0.00 0.00 0.00 96 1010.6
20260906081555 23 153 1.6 1.6 0.00 0.00 0.00 96 1010.8
20260906081050 23 149 0.0 0.0 0.00 0.00 0.00 96 1010.7
20260906080547 23 133 0.0 0.0 0.00 0.00 0.00 96 1010.4
20260906080043 23 132 0.0 0.0 0.00 0.00 0.00 96 1010.6
20260906075543 23 188 3.2 4.8 0.00 0.00 0.00 96 1010.4
20260906075037 23 134 0.0 0.0 0.00 0.00 0.00 96 1010.6
20260906074532 23 174 0.0 0.0 0.00 0.00 0.00 96 1010.7
20260906074031 23 175 0.0 0.0 0.00 0.00 0.00 96 1010.8
20260906073526 23 149 0.0 0.0 0.00 0.00 0.00 96 1010.8
20260906073017 23 148 0.0 0.0 0.00 0.00 0.00 96 1010.7
20260906072517 23 148 0.0 0.0 0.00 0.00 0.00 96 1010.8
20260906072013 23 148 0.0 0.0 0.00 0.00 0.00 96 1010.7
20260906071509 23 148 0.0 0.0 0.00 0.00 0.00 95 1010.7
20260906071004 23 148 0.0 0.0 0.00 0.00 0.00 95 1010.9
20260906070500 23 148 0.0 0.0 0.00 0.00 0.00 95 1011.0
20260906065956 23 148 0.0 0.0 0.00 0.00 0.00 95 1010.9
20260906065455 23 148 0.0 0.0 0.00 0.00 0.00 95 1011.1
20260906064951 23 148 0.0 0.0 0.00 0.00 0.00 95 1010.9
20260906064448 23 148 0.0 0.0 0.00 0.00 0.00 95 1011.0
20260906063947 24 148 0.0 0.0 0.00 0.00 0.00 95 1010.9
20260906063443 24 148 0.0 0.0 0.00 0.00 0.00 95 1011.0
20260906062943 24 148 0.0 0.0 0.00 0.00 0.00 95 1011.0
20260906062438 24 148 0.0 0.0 0.00 0.00 0.00 95 1011.1
20260906061933 24 148 0.0 0.0 0.00 0.00 0.00 95 1011.0
20260906061429 24 148 0.0 0.0 0.00 0.00 0.00 94 1011.1
20260906060923 24 148 0.0 0.0 0.00 0.00 0.00 94 1011.2
20260906060421 24 148 0.0 0.0 0.00 0.00 0.00 94 1011.0
20260906055917 24 148 0.0 0.0 0.00 0.00 0.00 94 1011.0
20260906055413 24 148 0.0 0.0 0.00 0.00 0.00 94 1011.2
20260906054908 24 148 0.0 0.0 0.00 0.00 0.00 94 1011.0
20260906054402 24 148 0.0 0.0 0.00 0.00 0.00 93 1011.0
20260906053858 24 148 0.0 0.0 0.00 0.00 0.00 93 1011.1
20260906053354 25 148 0.0 0.0 0.00 0.00 0.00 93 1011.0
20260906052850 25 148 0.0 0.0 0.00 0.00 0.00 92 1011.2
20260906052346 25 148 0.0 0.0 0.00 0.00 0.00 92 1011.0
20260906051843 25 148 0.0 0.0 0.00 0.00 0.00 92 1011.1
20260906051342 25 148 0.0 0.0 0.00 0.00 0.00 92 1010.9
20260906050838 25 148 0.0 0.0 0.00 0.00 0.00 92 1011.1
20260906050333 25 148 0.0 0.0 0.00 0.00 0.00 91 1010.9
20260906045831 25 148 0.0 0.0 0.00 0.00 0.00 91 1010.9
20260906045326 25 148 0.0 0.0 0.00 0.00 0.00 90 1010.9
20260906044823 25 148 0.0 0.0 0.00 0.00 0.00 90 1011.0
20260906044323 25 148 0.0 0.0 0.00 0.00 0.00 90 1010.8
20260906043819 25 148 0.0 0.0 0.00 0.00 0.00 90 1010.8
20260906043315 25 148 0.0 0.0 0.00 0.00 0.00 90 1010.7
20260906042814 25 148 0.0 0.0 0.00 0.00 0.00 90 1010.7
20260906042313 25 148 0.0 0.0 0.00 0.00 0.00 89 1010.4
20260906041809 25 148 0.0 0.0 0.00 0.00 0.00 89 1010.4
20260906041304 25 148 0.0 0.0 0.00 0.00 0.00 89 1010.4
20260906040759 25 148 0.0 0.0 0.00 0.00 0.00 89 1010.3
20260906040254 25 148 0.0 0.0 0.00 0.00 0.00 88 1010.7
20260906035749 25 148 0.0 0.0 0.00 0.00 0.00 87 1010.8
20260906035246 25 148 0.0 0.0 0.00 0.00 0.00 87 1010.6
20260906034745 26 148 0.0 0.0 0.00 0.00 0.00 87 1011.0
20260906034240 26 148 0.0 0.0 0.00 0.00 0.00 86 1010.8
20260906033736 26 148 0.0 0.0 0.00 0.00 0.00 86 1010.9
20260906033235 26 148 0.0 0.0 0.00 0.00 0.00 87 1011.0
20260906032732 26 148 0.0 0.0 0.00 0.00 0.00 86 1010.7
20260906032227 26 148 0.0 0.0 0.00 0.00 0.00 86 1011.1
20260906031722 26 148 0.0 0.0 0.00 0.00 0.00 86 1011.0
20260906031218 26 148 0.0 0.0 0.00 0.00 0.00 84 1011.0
20260906030717 26 148 0.0 0.0 0.00 0.00 0.00 83 1011.0
20260906030212 26 147 0.0 0.0 0.00 0.00 0.00 82 1011.3
20260906025711 26 147 0.0 0.0 0.00 0.00 0.00 82 1011.3
20260906025206 26 147 0.0 0.0 0.00 0.00 0.00 82 1011.1
20260906024705 27 147 0.0 0.0 0.00 0.00 0.00 82 1011.5
20260906024204 27 147 0.0 0.0 0.00 0.00 0.00 82 1010.8
20260906023701 27 147 0.0 0.0 0.00 0.00 0.00 82 1010.8
20260906023200 27 147 0.0 0.0 0.00 0.00 0.00 82 1011.0
20260906022655 27 147 0.0 1.6 0.00 0.00 0.00 81 1011.1
20260906022151 27 147 1.6 1.6 0.00 0.00 0.00 80 1010.7
20260906021647 27 148 0.0 0.0 0.00 0.00 0.00 80 1010.7
20260906021146 27 147 0.0 0.0 0.00 0.00 0.00 79 1010.7
20260906020641 27 146 1.6 1.6 0.00 0.00 0.00 80 1010.6
20260906020136 27 163 0.0 0.0 0.00 0.00 0.00 80 1010.3
20260906015630 27 174 0.0 1.6 0.00 0.00 0.00 78 1010.2
20260906015129 28 147 0.0 0.0 0.00 0.00 0.00 78 1010.2
20260906014628 28 146 0.0 0.0 0.00 0.00 0.00 76 1010.0
20260906014125 28 146 0.0 0.0 0.00 0.00 0.00 75 1010.1
20260906013620 29 146 0.0 0.0 0.00 0.00 0.00 73 1010.2
20260906013115 29 146 0.0 0.0 0.00 0.00 0.00 71 1010.1
20260906012610 29 146 0.0 0.0 0.00 0.00 0.00 70 1010.1
20260906012110 30 146 0.0 0.0 0.00 0.00 0.00 70 1010.1
20260906011607 30 148 0.0 0.0 0.00 0.00 0.00 69 1009.9
20260906011106 30 148 0.0 0.0 0.00 0.00 0.00 68 1009.9
20260906010602 31 148 0.0 0.0 0.00 0.00 0.00 67 1009.6
20260906010058 31 145 0.0 0.0 0.00 0.00 0.00 65 1009.7
20260906005552 31 140 0.0 0.0 0.00 0.00 0.00 63 1009.7
20260906005051 31 149 0.0 0.0 0.00 0.00 0.00 63 1009.6
20260906004550 31 148 0.0 0.0 0.00 0.00 0.00 62 1009.9
20260906004045 31 154 0.0 0.0 0.00 0.00 0.00 62 1009.6
20260906003540 32 148 0.0 0.0 0.00 0.00 0.00 61 1009.7
20260906003037 32 153 0.0 0.0 0.00 0.00 0.00 61 1009.7
20260906002536 31 86 3.2 6.4 0.00 0.00 0.00 64 1009.7
20260906002031 32 144 0.0 0.0 0.00 0.00 0.00 70 1009.6
20260906001527 32 156 0.0 0.0 0.00 0.00 0.00 67 1009.6
20260906001027 33 156 0.0 0.0 0.00 0.00 0.00 65 1009.4
20260906000523 33 156 0.0 0.0 0.00 0.00 0.00 61 1009.4
20260906000018 34 164 0.0 0.0 0.00 0.00 0.00 60 1009.6
20260905235517 34 164 0.0 0.0 0.00 0.00 0.00 59 1009.4
20260905235013 35 164 0.0 0.0 0.00 0.00 0.00 57 1009.5
20260905234509 36 164 0.0 0.0 0.00 0.00 0.00 54 1009.6
20260905234008 36 164 0.0 0.0 0.00 0.00 0.00 51 1009.5
20260905233503 36 164 0.0 0.0 0.00 0.00 0.00 51 1009.4
20260905233002 36 164 0.0 0.0 0.00 0.00 0.00 52 1009.6
20260905232458 36 179 0.0 0.0 0.00 0.00 0.00 47 1009.3
20260905231954 36 149 0.0 0.0 0.00 0.00 0.00 48 1009.3
20260905231449 36 155 0.0 0.0 0.00 0.00 0.00 46 1009.2
20260905230946 37 156 0.0 0.0 0.00 0.00 0.00 45 1009.4
20260905230444 37 156 0.0 0.0 0.00 0.00 0.00 45 1009.3
20260905225943 37 157 0.0 0.0 0.00 0.00 0.00 45 1009.3
20260905225438 37 145 0.0 0.0 0.00 0.00 0.00 44 1009.3
20260905224933 37 157 0.0 0.0 0.00 0.00 0.00 45 1009.2
20260905224429 37 148 1.6 1.6 0.00 0.00 0.00 43 1009.6
20260905223928 37 148 0.0 0.0 0.00 0.00 0.00 44 1009.2
20260905223426 37 145 0.0 0.0 0.00 0.00 0.00 45 1009.2
20260905222926 37 160 0.0 1.6 0.00 0.00 0.00 45 1009.5
20260905222425 37 159 0.0 0.0 0.00 0.00 0.00 44 1009.4
20260905221921 37 214 3.2 4.8 0.00 0.00 0.00 45 1009.4
20260905221418 37 166 0.0 0.0 0.00 0.00 0.00 46 1009.5
20260905220914 37 120 0.0 0.0 0.00 0.00 0.00 45 1009.6
20260905220410 37 107 3.2 4.8 0.00 0.00 0.00 44 1009.6
20260905215908 37 139 0.0 0.0 0.00 0.00 0.00 43 1009.6
20260905215404 37 124 1.6 1.6 0.00 0.00 0.00 43 1009.6
20260905214900 37 172 4.8 6.4 0.00 0.00 0.00 42 1009.6
20260905214356 37 148 1.6 1.6 0.00 0.00 0.00 43 1009.7
20260905213850 37 293 4.8 6.4 0.00 0.00 0.00 44 1009.4
20260905213347 37 161 1.6 1.6 0.00 0.00 0.00 45 1009.4
20260905212842 37 154 1.6 1.6 0.00 0.00 0.00 45 1009.5
20260905212341 38 175 1.6 1.6 0.00 0.00 0.00 44 1009.4
20260905211835 38 141 0.0 0.0 0.00 0.00 0.00 39 1009.6
20260905211331 38 163 0.0 0.0 0.00 0.00 0.00 38 1009.6
20260905210828 37 168 6.4 6.4 0.00 0.00 0.00 42 1009.6
20260905210327 37 108 4.8 8.0 0.00 0.00 0.00 39 1009.5
20260905205826 38 134 3.2 6.4 0.00 0.00 0.00 40 1009.8
20260905205321 38 135 1.6 1.6 0.00 0.00 0.00 40 1009.7
20260905204820 38 110 3.2 4.8 0.00 0.00 0.00 39 1009.9
20260905204317 37 160 0.0 0.0 0.00 0.00 0.00 39 1010.0
20260905203815 38 159 0.0 0.0 0.00 0.00 0.00 40 1010.2
20260905203311 38 67 4.8 4.8 0.00 0.00 0.00 37 1010.6
20260905202806 38 165 1.6 1.6 0.00 0.00 0.00 39 1010.3
20260905202301 38 158 0.0 0.0 0.00 0.00 0.00 41 1010.6
20260905201757 38 159 3.2 4.8 0.00 0.00 0.00 42 1010.6
20260905201253 38 167 0.0 1.6 0.00 0.00 0.00 41 1010.8
20260905200753 38 74 3.2 6.4 0.00 0.00 0.00 41 1011.1
20260905200249 37 160 0.0 0.0 0.00 0.00 0.00 40 1010.9
20260905195746 37 227 6.4 8.0 0.00 0.00 0.00 39 1010.9
20260905195242 37 176 3.2 4.8 0.00 0.00 0.00 40 1011.0
20260905194737 37 157 0.0 1.6 0.00 0.00 0.00 41 1011.1
20260905194236 37 161 0.0 1.6 0.00 0.00 0.00 42 1011.1
20260905193736 37 37 3.2 4.8 0.00 0.00 0.00 41 1011.3
20260905193231 37 164 0.0 0.0 0.00 0.00 0.00 42 1011.3
20260905192727 37 133 3.2 4.8 0.00 0.00 0.00 41 1011.5
20260905192223 37 179 0.0 0.0 0.00 0.00 0.00 42 1011.3
20260905191722 36 108 4.8 6.4 0.00 0.00 0.00 42 1011.8
20260905191220 37 161 0.0 1.6 0.00 0.00 0.00 45 1011.9
20260905190719 37 216 3.2 4.8 0.00 0.00 0.00 42 1011.8
20260905190218 37 103 3.2 4.8 0.00 0.00 0.00 43 1011.8
20260905185718 37 111 1.6 1.6 0.00 0.00 0.00 42 1011.7
20260905185212 37 216 0.0 1.6 0.00 0.00 0.00 43 1012.1
20260905184707 37 302 6.4 6.4 0.00 0.00 0.00 40 1012.0
20260905184206 37 41 3.2 4.8 0.00 0.00 0.00 46 1012.3
20260905183706 37 154 0.0 1.6 0.00 0.00 0.00 42 1012.0
20260905183201 37 168 1.6 4.8 0.00 0.00 0.00 42 1012.1
20260905182700 37 162 0.0 0.0 0.00 0.00 0.00 45 1012.3
20260905182200 36 158 0.0 0.0 0.00 0.00 0.00 45 1012.5
20260905181656 36 146 1.6 1.6 0.00 0.00 0.00 45 1012.4
20260905181154 36 156 3.2 4.8 0.00 0.00 0.00 48 1012.5
20260905180649 36 236 3.2 4.8 0.00 0.00 0.00 43 1012.4
20260905180145 36 85 4.8 4.8 0.00 0.00 0.00 45 1012.5
20260905175643 36 122 0.0 1.6 0.00 0.00 0.00 47 1012.6
20260905175139 36 135 1.6 1.6 0.00 0.00 0.00 44 1012.5
20260905174635 37 184 3.2 4.8 0.00 0.00 0.00 46 1012.6
20260905174130 36 169 0.0 1.6 0.00 0.00 0.00 47 1012.7
20260905173626 36 186 1.6 4.8 0.00 0.00 0.00 49 1012.8
20260905173122 36 147 3.2 4.8 0.00 0.00 0.00 48 1012.9
20260905172620 36 149 0.0 0.0 0.00 0.00 0.00 47 1012.7
20260905172115 36 162 1.6 1.6 0.00 0.00 0.00 49 1013.1
20260905171612 36 217 4.8 6.4 0.00 0.00 0.00 49 1012.9
20260905171108 36 165 0.0 1.6 0.00 0.00 0.00 48 1013.1
20260905170604 36 46 3.2 6.4 0.00 0.00 0.00 47 1012.9
20260905170100 35 133 3.2 4.8 0.00 0.00 0.00 47 1013.3
20260905165559 36 302 6.4 8.0 0.00 0.00 0.00 48 1013.0
20260905165054 36 182 1.6 1.6 0.00 0.00 0.00 47 1013.3
20260905164549 35 148 1.6 1.6 0.00 0.00 0.00 49 1013.3
20260905164044 35 124 1.6 1.6 0.00 0.00 0.00 52 1013.2
20260905163540 35 179 0.0 0.0 0.00 0.00 0.00 55 1013.2
20260905163036 35 190 0.0 0.0 0.00 0.00 0.00 52 1013.4
20260905162532 35 91 6.4 6.4 0.00 0.00 0.00 52 1013.6
20260905162026 35 138 1.6 1.6 0.00 0.00 0.00 52 1013.2
20260905161526 35 125 3.2 4.8 0.00 0.00 0.00 53 1013.5
20260905161024 35 154 1.6 1.6 0.00 0.00 0.00 54 1013.6
20260905160523 34 161 0.0 0.0 0.00 0.00 0.00 55 1013.5
20260905160017 34 149 1.6 4.8 0.00 0.00 0.00 60 1013.4